KB7YYZ Weather Reports


Display with metric or nautical units.
time (UTC)temp
F
wind
direction
speed
MPH
gust
MPH
rain 1hr
in
rain 24hr
in
rain mn
in
humidity
%
barometer
mb
20260504194022 84 232 4.0 162.0 0.00 0.00 0.00 19 1006.8
20260504193029 83 234 2.0 3.0 0.00 0.00 0.00 19 1006.6
20260504192028 83 244 3.0 3.0 0.00 0.00 0.00 19 1006.7
20260504191019 83 232 2.0 3.0 0.00 0.00 0.00 19 1006.7
20260504190026 83 211 3.0 3.0 0.00 0.00 0.00 20 1006.6
20260504185042 83 228 4.0 4.0 0.00 0.00 0.00 20 1007.0
20260504184019 82 217 3.0 3.0 0.00 0.00 0.00 21 1007.1
20260504183044 82 231 2.0 2.0 0.00 0.00 0.00 23 1007.4
20260504182024 81 176 2.0 2.0 0.00 0.00 0.00 23 1007.4
20260504181023 81 117 2.0 2.0 0.00 0.00 0.00 23 1007.4
20260504180031 81 177 2.0 2.0 0.00 0.00 0.00 23 1007.4
20260504175030 81 45 1.0 2.0 0.00 0.00 0.00 24 1007.4
20260504174042 80 205 2.0 2.0 0.00 0.00 0.00 24 1007.6
20260504173042 80 17 1.0 2.0 0.00 0.00 0.00 24 1007.5
20260504172020 80 222 2.0 2.0 0.00 0.00 0.00 26
20260504171026 80 183 2.0 2.0 0.00 0.00 0.00 26 1007.7
20260504151021 76 223 2.0 2.0 0.00 0.00 0.00 31 1007.6
20260504141055 74 163 2.0 2.0 0.00 0.00 0.00 31 1007.4
20260504081023 75 194 0.0 0.0 0.00 0.00 0.00 29 1006.0
20260504045028 79 263 0.0 1.0 0.00 0.00 0.00 24 1006.8
20260504044025 79 201 1.0 1.0 0.00 0.00 0.00 24 1006.8
20260504043023 79 198 2.0 2.0 0.00 0.00 0.00 24 1006.7
20260504042020 80 206 2.0 3.0 0.00 0.00 0.00 23 1006.6
20260504041033 80 244 2.0 2.0 0.00 0.00 0.00 22 1006.6
20260504040024 80 193 2.0 3.0 0.00 0.00 0.00 21 1006.3
20260504035039 81 243 3.0 3.0 0.00 0.00 0.00 20 1006.0
20260504034058 81 220 3.0 3.0 0.00 0.00 0.00 19 1005.7
20260504033025 82 209 3.0 4.0 0.00 0.00 0.00 18 1005.5
20260504032031 82 229 5.0 5.0 0.00 0.00 0.00 17 1005.3
20260504031021 83 237 4.0 162.0 0.00 0.00 0.00 16 1005.0
20260504030036 83 235 3.0 4.0 0.00 0.00 0.00 15 1004.8
20260504025045 84 233 4.0 4.0 0.00 0.00 0.00 15 1004.4
20260504024042 84 242 4.0 4.0 0.00 0.00 0.00 14 1004.1
20260504023028 85 235 4.0 5.0 0.00 0.00 0.00 14 1004.0
20260504022034 85 217 4.0 4.0 0.00 0.00 0.00 14 1003.9
20260504021053 85 243 4.0 4.0 0.00 0.00 0.00 13 1003.8
20260504020035 86 216 4.0 4.0 0.00 0.00 0.00 13 1003.6
20260504015025 86 232 3.0 3.0 0.00 0.00 0.00 13 1003.5
20260504014025 87 232 5.0 161.0 0.00 0.00 0.00 12 1003.5
20260504013031 87 217 5.0 161.0 0.00 0.00 0.00 11 1003.2
20260504012052 88 223 5.0 161.0 0.00 0.00 0.00 11 1003.2
20260504011045 88 247 6.0 6.0 0.00 0.00 0.00 11 1003.4
20260504010022 89 223 5.0 5.0 0.00 0.00 0.00 11 1003.4
20260504005044 89 234 4.0 4.0 0.00 0.00 0.00 11 1003.5
20260504004021 89 232 5.0 5.0 0.00 0.00 0.00 11 1003.5
20260504003026 90 218 5.0 162.0 0.00 0.00 0.00 11 1003.4
20260504002042 90 238 6.0 6.0 0.00 0.00 0.00 10 1003.4
20260504001028 90 226 5.0 162.0 0.00 0.00 0.00 10 1003.3
20260504000019 90 236 6.0 162.0 0.00 0.00 0.00 10 1003.3
20260503235025 90 235 6.0 161.0 0.00 0.00 0.00 11 1003.3
20260503234024 91 221 6.0 161.0 0.00 0.00 0.00 11 1003.0
20260503233059 91 239 6.0 7.0 0.00 0.00 0.00 11 1003.2
20260503232047 91 222 7.0 162.0 0.00 0.00 0.00 11 1003.1
20260503231029 91 232 6.0 161.0 0.00 0.00 0.00 12 1003.1
20260503230024 91 223 5.0 162.0 0.00 0.00 0.00 13 1003.1
20260503225021 91 228 6.0 7.0 0.00 0.00 0.00 14 1003.2
20260503224038 91 228 5.0 162.0 0.00 0.00 0.00 15 1003.4
20260503223036 91 249 4.0 4.0 0.00 0.00 0.00 16 1003.4
20260503222025 91 218 2.0 2.0 0.00 0.00 0.00 18 1003.4
20260503221019 90 215 2.0 2.0 0.00 0.00 0.00 20 1003.5
20260503220025 90 179 2.0 2.0 0.00 0.00 0.00 21 1003.5
20260503215028 90 72 2.0 2.0 0.00 0.00 0.00 21 1003.6
20260503214027 89 90 2.0 2.0 0.00 0.00 0.00 22 1004.1
20260503213024 88 259 2.0 2.0 0.00 0.00 0.00 22 1004.2
20260503212022 88 224 2.0 2.0 0.00 0.00 0.00 22 1004.5
20260503211025 88 175 2.0 2.0 0.00 0.00 0.00 23 1004.6
20260503210028 88 281 2.0 2.0 0.00 0.00 0.00 24 1004.8
20260503205035 87 192 2.0 2.0 0.00 0.00 0.00 23 1004.9
20260503204039 87 102 2.0 2.0 0.00 0.00 0.00 23 1005.0
20260503203055 86 247 2.0 3.0 0.00 0.00 0.00 24 1005.2
20260503202040 86 150 2.0 2.0 0.00 0.00 0.00 24 1005.2
20260503201026 86 189 2.0 2.0 0.00 0.00 0.00 25 1005.4
20260503200022 86 171 2.0 2.0 0.00 0.00 0.00 25 1005.5
20260503195038 85 90 2.0 2.0 0.00 0.00 0.00 26 1005.7